Henderson, KY

12:03 AM CST on December 14, 2019 (GMT -0600)
Henderson City-County

Weather History for KEHR - October, 2019

Change the Weather History Date:

Sunday, October 6, 2019

  Actual Average Record
Temperature  
Mean Temperature 64 °F -  
Max Temperature 71 °F 74 °F 93 °F (1941)
Min Temperature 57 °F 50 °F 31 °F (1980)
Degree Days  
Heating Degree Days 1    
Growing Degree Days 14 (Base 50)    
Moisture  
Dew Point 58 °F    
Average Humidity 82    
Maximum Humidity 94    
Minimum Humidity 61    
Precipitation  
Precipitation 0.01 in - - ()
Sea Level Pressure  
Sea Level Pressure 30.10 in    
Wind  
Wind Speed 4 mph (North)    
Max Wind Speed 14 mph    
Max Gust Speed -    
Visibility 10 miles    
Events Rain    
Averages and records for this station are not official NWS values.
T = Trace of Precipitation, MM = Missing Value Source: NWS Daily Summary

Daily Weather History Graph

Daily Weather History Graph

Search for Another Location

Airport or City:

Astronomy

Oct. 06, 2019 Rise Set
Actual Time 6:50 AM CDT 6:26 PM CDT
Civil Twilight 6:24 AM CDT 6:52 PM CDT
Nautical Twilight 5:53 AM CDT 7:23 PM CDT
Astronomical Twilight 5:23 AM CDT 7:53 PM CDT
Moon 2:57 PM CDT (10/6) No Moon Set
Length of Visible Light 12h 28m
Length of Day
11h 35m
First Quarter, 60% of the Moon is Illuminated
Oct 6
First Quarter
Oct 13
Full
Oct 21
Last Quarter
Oct 27
New
Nov 4
First Quarter

Hourly Weather History & Observations

Time (CDT) Temp. Dew Point Humidity Pressure Visibility Wind Dir Wind Speed Gust Speed Precip Events Conditions
12:56 AM 64.9 °F 55.9 °F 73% 29.98 in 10.0 mi SSW 3.5 mph - N/A   Partly Cloudy
1:56 AM 68.0 °F 54.0 °F 61% 30.00 in 10.0 mi Calm Calm - N/A   Mostly Cloudy
2:56 AM 64.0 °F 57.0 °F 78% 30.00 in 10.0 mi Calm Calm - N/A   Clear
3:56 AM 62.1 °F 57.0 °F 84% 30.00 in 10.0 mi Calm Calm - N/A   Clear
4:56 AM 64.9 °F 55.0 °F 70% 30.02 in 10.0 mi South 4.6 mph - 0.01 in   Mostly Cloudy
5:56 AM 60.1 °F 55.0 °F 83% 30.05 in 10.0 mi Calm Calm - N/A   Clear
6:56 AM 60.1 °F 55.0 °F 83% 30.06 in 10.0 mi Calm Calm - N/A   Mostly Cloudy
7:56 AM 63.0 °F 55.9 °F 78% 30.09 in 10.0 mi SW 4.6 mph - N/A   Clear
8:56 AM 66.9 °F 57.0 °F 70% 30.10 in 10.0 mi West 4.6 mph - 0.00 in   Clear
9:56 AM 70.0 °F 59.0 °F 68% 30.12 in 10.0 mi Variable 4.6 mph - N/A   Mostly Cloudy
10:56 AM 69.1 °F 59.0 °F 70% 30.13 in 10.0 mi Calm Calm - N/A   Mostly Cloudy
11:56 AM 70.0 °F 60.1 °F 71% 30.12 in 10.0 mi North 4.6 mph - 0.00 in Rain Light Rain
12:56 PM 70.0 °F 60.1 °F 71% 30.11 in 10.0 mi NE 4.6 mph - 0.00 in   Scattered Clouds
1:56 PM 71.1 °F 61.0 °F 70% 30.11 in 10.0 mi NNW 6.9 mph - N/A   Overcast
2:17 PM 66.2 °F 62.6 °F 88% 30.11 in 6.0 mi NW 5.8 mph - 0.00 in Rain Rain
2:33 PM 66.2 °F 62.6 °F 88% 30.10 in 9.0 mi Calm Calm - N/A Rain Light Rain
2:56 PM 66.9 °F 63.0 °F 87% 30.09 in 10.0 mi NNW 9.2 mph - N/A Rain Light Rain
3:43 PM 64.4 °F 62.6 °F 94% 30.11 in 10.0 mi NNW 6.9 mph - N/A Rain Light Rain
3:56 PM 64.0 °F 62.1 °F 93% 30.11 in 10.0 mi NNW 8.1 mph - N/A Rain Light Rain
4:07 PM 64.4 °F 62.6 °F 94% 30.11 in 10.0 mi North 6.9 mph - N/A Rain Light Rain
4:56 PM 64.0 °F 62.1 °F 93% 30.08 in 10.0 mi NE 11.5 mph - N/A   Mostly Cloudy
5:41 PM 62.6 °F 60.8 °F 94% 30.10 in 10.0 mi NNE 11.5 mph - N/A   Mostly Cloudy
5:56 PM 63.0 °F 60.1 °F 90% 30.11 in 10.0 mi NNE 10.4 mph - N/A   Mostly Cloudy
6:30 PM 62.6 °F 60.8 °F 94% 30.12 in 10.0 mi North 9.2 mph - N/A   Overcast
6:56 PM 62.1 °F 59.0 °F 90% 30.14 in 10.0 mi North 6.9 mph - N/A   Overcast
7:11 PM 60.8 °F 59.0 °F 94% 30.13 in 10.0 mi North 6.9 mph - N/A   Overcast
7:56 PM 60.1 °F 57.0 °F 90% 30.17 in 10.0 mi NNW 13.8 mph - N/A Rain Light Rain
8:56 PM 57.9 °F 52.0 °F 81% 30.17 in 10.0 mi NE 10.4 mph - N/A Rain Light Rain
9:56 PM 57.0 °F 51.1 °F 81% 30.18 in 10.0 mi NE 6.9 mph - N/A   Overcast
10:56 PM 57.9 °F 53.1 °F 84% 30.15 in 10.0 mi East 4.6 mph - N/A   Overcast
11:56 PM 57.9 °F 53.1 °F 84% 30.16 in 10.0 mi North 3.5 mph - N/A   Overcast